• In Netherlands
  • List of Countries
  • For 7 days
  • Water Temperature
  • Satellite Maps
  • Weather Map
  • Weather Widgets
  • user-avatar
    Login

    Hourly Weather Byala

    Today, 19 January, Friday

    Time Temperature Precipitation Wind Pressure Humidity
    00:00 -4°C° 0 mm 10 mps 748 mmHg 77%
    01:00 -4°C° 0 mm 9 mps 748 mmHg 78%
    02:00 -5°C° 0 mm 8 mps 748 mmHg 79%
    03:00 -4°C° 0 mm 7 mps 748 mmHg 80%
    04:00 -4°C° 0 mm 6 mps 748 mmHg 80%
    05:00 -4°C° 0 mm 5 mps 748 mmHg 80%
    06:00 -4°C° 0 mm 5 mps 749 mmHg 77%
    07:00 -2°C° 0 mm 5 mps 749 mmHg 74%
    08:00 -2°C° 0 mm 5 mps 749 mmHg 71%
    09:00 0°C° 0 mm 5 mps 749 mmHg 65%
    10:00 +2°C° 0 mm 5 mps 749 mmHg 60%
    11:00 +3°C° 0 mm 5 mps 750 mmHg 55%
    12:00 +5°C° 0 mm 5 mps 750 mmHg 54%
    13:00 +6°C° 0 mm 5 mps 749 mmHg 54%
    14:00 +7°C° 0 mm 5 mps 749 mmHg 54%
    15:00 +6°C° 0 mm 5 mps 749 mmHg 58%
    16:00 +5°C° 0 mm 5 mps 749 mmHg 62%
    17:00 +3°C° 0 mm 5 mps 749 mmHg 66%
    18:00 +2°C° 0 mm 5 mps 749 mmHg 68%
    19:00 +2°C° 0 mm 5 mps 750 mmHg 69%
    20:00 +1°C° 0 mm 5 mps 750 mmHg 70%
    21:00 +1°C° 0 mm 5 mps 750 mmHg 74%
    22:00 +1°C° 0 mm 5 mps 749 mmHg 77%
    23:00 +1°C° 0 mm 5 mps 749 mmHg 81%

    Tomorrow, 20 January, Saturday

    Time Temperature Precipitation Wind Pressure Humidity
    00:00 +1°C° 0 mm 5 mps 749 mmHg 84%
    01:00 +1°C° 0 mm 5 mps 749 mmHg 86%
    02:00 -1°C° 0 mm 6 mps 749 mmHg 89%
    03:00 0°C° 0 mm 5 mps 749 mmHg 89%
    04:00 0°C° 0 mm 5 mps 749 mmHg 89%
    05:00 0°C° 0 mm 5 mps 748 mmHg 89%
    06:00 0°C° 0 mm 5 mps 748 mmHg 87%
    07:00 0°C° 0 mm 5 mps 748 mmHg 85%
    08:00 0°C° 0 mm 5 mps 748 mmHg 83%
    09:00 +3°C° 0 mm 4 mps 748 mmHg 79%
    10:00 +4°C° 0 mm 4 mps 748 mmHg 75%
    11:00 +5°C° 0 mm 4 mps 748 mmHg 71%
    12:00 +6°C° 0 mm 4 mps 748 mmHg 72%
    13:00 +6°C° 0 mm 4 mps 747 mmHg 74%
    14:00 +7°C° 0 mm 4 mps 747 mmHg 75%
    15:00 +6°C° 0.2 mm 4 mps 747 mmHg 79%
    16:00 +7°C° 0.2 mm 3 mps 746 mmHg 84%
    17:00 +5°C° 0.2 mm 3 mps 746 mmHg 89%
    18:00 +5°C° 0.6 mm 4 mps 746 mmHg 87%
    19:00 +4°C° 0.6 mm 4 mps 746 mmHg 85%
    20:00 +3°C° 0.6 mm 4 mps 746 mmHg 84%
    21:00 +2°C° 0.4 mm 5 mps 746 mmHg 85%
    22:00 +2°C° 0.4 mm 5 mps 747 mmHg 87%
    23:00 +2°C° 0.4 mm 6 mps 747 mmHg 89%

    Day after tomorrow, 21 January, Sunday

    Time Temperature Precipitation Wind Pressure Humidity
    00:00 +1°C° 0.2 mm 5 mps 747 mmHg 89%
    01:00 +1°C° 0.2 mm 4 mps 747 mmHg 89%
    02:00 +1°C° 0.2 mm 4 mps 748 mmHg 90%
    03:00 +1°C° 0 mm 3 mps 748 mmHg 89%
    04:00 +1°C° 0 mm 3 mps 748 mmHg 89%
    05:00 +1°C° 0 mm 2 mps 748 mmHg 88%
    06:00 +2°C° 0 mm 2 mps 748 mmHg 87%
    07:00 +2°C° 0 mm 2 mps 748 mmHg 87%
    08:00 +2°C° 0 mm 2 mps 748 mmHg 86%
    09:00 +2°C° 0 mm 3 mps 748 mmHg 84%
    10:00 +3°C° 0 mm 4 mps 748 mmHg 83%
    11:00 +3°C° 0 mm 5 mps 748 mmHg 81%
    12:00 +3°C° 0.3 mm 5 mps 747 mmHg 84%
    13:00 +3°C° 0.3 mm 6 mps 746 mmHg 87%
    14:00 +3°C° 0.3 mm 6 mps 745 mmHg 90%
    15:00 +3°C° 1.3 mm 6 mps 745 mmHg 92%
    16:00 +3°C° 1.3 mm 6 mps 744 mmHg 93%
    17:00 +3°C° 1.3 mm 7 mps 744 mmHg 95%
    18:00 +3°C° 1.3 mm 6 mps 743 mmHg 95%
    19:00 +3°C° 1.3 mm 6 mps 743 mmHg 95%
    20:00 +3°C° 1.3 mm 6 mps 742 mmHg 96%
    21:00 +3°C° 0.7 mm 5 mps 742 mmHg 96%
    22:00 +5°C° 0.7 mm 4 mps 742 mmHg 97%
    23:00 +5°C° 0.7 mm 3 mps 741 mmHg 98%

    22 January, Monday

    Time Temperature Precipitation Wind Pressure Humidity
    00:00 +5°C° 1.1 mm 4 mps 741 mmHg 97%
    01:00 +5°C° 1.1 mm 4 mps 741 mmHg 96%
    02:00 +3°C° 1.1 mm 5 mps 741 mmHg 94%
    03:00 +3°C° 0.7 mm 6 mps 741 mmHg 92%
    04:00 +2°C° 0.7 mm 7 mps 741 mmHg 90%
    05:00 +1°C° 0.7 mm 9 mps 741 mmHg 88%
    06:00 0°C° 0.3 mm 10 mps 742 mmHg 87%
    07:00 -2°C° 0.3 mm 11 mps 743 mmHg 86%
    08:00 -2°C° 0.3 mm 13 mps 743 mmHg 86%
    09:00 -4°C° 0.3 mm 13 mps 744 mmHg 85%
    10:00 -4°C° 0.3 mm 13 mps 745 mmHg 85%
    11:00 -4°C° 0.3 mm 13 mps 745 mmHg 85%
    12:00 -4°C° 0.1 mm 13 mps 746 mmHg 84%
    13:00 -3°C° 0.1 mm 12 mps 746 mmHg 83%
    14:00 -3°C° 0.1 mm 12 mps 747 mmHg 82%
    15:00 -3°C° 0 mm 12 mps 747 mmHg 81%
    16:00 -3°C° 0 mm 12 mps 748 mmHg 80%
    17:00 -3°C° 0 mm 11 mps 749 mmHg 78%
    18:00 -4°C° 0 mm 11 mps 750 mmHg 79%
    19:00 -4°C° 0 mm 11 mps 751 mmHg 81%
    20:00 -5°C° 0 mm 10 mps 751 mmHg 82%
    21:00 -5°C° 0 mm 10 mps 752 mmHg 83%
    22:00 -5°C° 0 mm 10 mps 752 mmHg 85%
    23:00 -5°C° 0 mm 9 mps 752 mmHg 87%

    23 January, Tuesday

    Time Temperature Precipitation Wind Pressure Humidity
    00:00 -4°C° 0 mm 9 mps 753 mmHg 86%
    01:00 -4°C° 0 mm 9 mps 753 mmHg 86%
    02:00 -4°C° 0 mm 8 mps 753 mmHg 85%
    03:00 -4°C° 0 mm 8 mps 754 mmHg 87%
    04:00 -4°C° 0 mm 7 mps 754 mmHg 88%
    05:00 -4°C° 0 mm 7 mps 754 mmHg 89%
    06:00 -4°C° 0 mm 6 mps 754 mmHg 89%
    07:00 -4°C° 0 mm 6 mps 755 mmHg 89%
    08:00 -5°C° 0 mm 5 mps 755 mmHg 89%
    09:00 -2°C° 0 mm 5 mps 755 mmHg 83%
    10:00 -1°C° 0 mm 4 mps 756 mmHg 77%
    11:00 0°C° 0 mm 4 mps 756 mmHg 71%
    12:00 0°C° 0 mm 4 mps 756 mmHg 69%
    13:00 +1°C° 0 mm 4 mps 756 mmHg 67%
    14:00 +1°C° 0 mm 4 mps 756 mmHg 65%
    15:00 +1°C° 0 mm 3 mps 756 mmHg 70%
    16:00 +1°C° 0 mm 3 mps 756 mmHg 74%
    17:00 0°C° 0 mm 3 mps 756 mmHg 79%
    18:00 -1°C° 0 mm 3 mps 757 mmHg 81%
    19:00 -1°C° 0 mm 3 mps 757 mmHg 83%
    20:00 -2°C° 0 mm 3 mps 758 mmHg 85%
    21:00 -2°C° 0 mm 2 mps 758 mmHg 85%
    22:00 -2°C° 0 mm 2 mps 758 mmHg 85%
    23:00 -2°C° 0 mm 2 mps 758 mmHg 84%

    24 January, Wednesday

    Time Temperature Precipitation Wind Pressure Humidity
    00:00 -2°C° 0 mm 2 mps 758 mmHg 83%
    01:00 -2°C° 0 mm 2 mps 758 mmHg 82%
    02:00 -2°C° 0 mm 2 mps 759 mmHg 82%
    03:00 -2°C° 0 mm 2 mps 759 mmHg 81%
    04:00 -2°C° 0 mm 2 mps 759 mmHg 80%
    05:00 -2°C° 0 mm 2 mps 758 mmHg 79%
    06:00 -2°C° 0 mm 2 mps 759 mmHg 79%
    07:00 -2°C° 0 mm 2 mps 759 mmHg 78%
    08:00 -2°C° 0 mm 2 mps 759 mmHg 78%
    09:00 -1°C° 0 mm 2 mps 760 mmHg 74%
    10:00 0°C° 0 mm 3 mps 760 mmHg 70%
    11:00 +1°C° 0 mm 3 mps 760 mmHg 65%
    12:00 +1°C° 0 mm 3 mps 760 mmHg 64%
    13:00 +2°C° 0 mm 3 mps 760 mmHg 63%
    14:00 +1°C° 0 mm 4 mps 760 mmHg 62%
    15:00 0°C° 0 mm 4 mps 760 mmHg 66%
    16:00 -1°C° 0 mm 4 mps 761 mmHg 70%
    17:00 -1°C° 0 mm 5 mps 761 mmHg 74%
    18:00 -2°C° 0 mm 5 mps 761 mmHg 76%
    19:00 -4°C° 0 mm 5 mps 762 mmHg 78%
    20:00 -4°C° 0 mm 5 mps 762 mmHg 80%
    21:00 -4°C° 0 mm 5 mps 762 mmHg 81%
    22:00 -5°C° 0 mm 5 mps 763 mmHg 82%
    23:00 -5°C° 0 mm 5 mps 763 mmHg 83%
    Show more